User: anonymous   Login
Location: Asheville, NC
(35.6000°N, 82.5500°W)
Time: 22:00:34
(UTC-04:00)
Language:

RS-15 - Orbit

View from above orbital plane
View from above orbital plane
View from above satellite
View from above satellite

Ground track
Ground track

The orbit data is extracted from the following two-line orbital elements,

1 23439U 94085A   18114.93862238 -.00000029 +00000-0 +38324-3 0  9998
2 23439 064.8171 074.9479 0158918 191.7527 238.6958 11.27567017960568
Epoch (UTC): 24 April 2018 22:31:36
Eccentricity: 0.0158918
inclination: 64.8171°
perigee height: 1889 km
apogee height: 2156 km
right ascension of ascending node: 74.9479°
argument of perigee: 191.7527°
revolutions per day: 11.27567017
mean anomaly at epoch: 238.6958°
orbit number at epoch: 96056

The dashed part of the orbit path shows where the satellite is in the earth's shadow,  

DLR